Regional Weather Roundup
Issued by NWS

Home | Current Version | Previous Version | Graphics & Text | Print | Product List | Glossary On
Versions: 1 2 3 4 5 6 7 8 9 10 11 12 13 14 15 16 17 18 19 20 21 22 23 24 25 26 27 28 29 30 31 32 33 34 35 36 37 38 39 40 41 42 43 44 45 46 47 48 49 50
000
ASUS43 KMPX 241701
RWRMN
WEATHER ROUNDUP FOR MINNESOTA
NATIONAL WEATHER SERVICE TWIN CITIES/CHANHASSEN MN
1200 PM CDT THU JUL 24 2014


NOTE: "FAIR" INDICATES FEW OR NO CLOUDS BELOW 12,000 FEET WITH NO
SIGNIFICANT WEATHER AND/OR OBSTRUCTIONS TO VISIBILITY. N/A MEANS
CURRENT SKY AND/OR WEATHER CONDITIONS ARE NOT AVAILABLE.

MNZ060>063-068>070-241800-
   Twin Cities Metro

CITY           SKY/WX    TMP DP  RH WIND       PRES   REMARKS
TWIN CITIES    PTSUNNY   78  55  44 S10       30.09F
ST PAUL        SUNNY     78  57  48 S9        30.10F
CRYSTAL        SUNNY     80  55  42 S10       30.08F
BLAINE         MOSUNNY   79  54  41 S12       30.10F
LAKEVILLE      MOSUNNY   75  57  53 S10       30.10F
EDEN PRAIRIE   MOSUNNY   79  56  45 S9G17     30.08F
SOUTH ST PAUL  SUNNY     77  56  47 S12       30.10F
LAKE ELMO      FAIR      77  59  53 S9        30.12F
$$
MNZ001>005-007-008-013>017-022>024-027-028-241800-
   Northwest Minnesota

CITY           SKY/WX    TMP DP  RH WIND       PRES   REMARKS
BEMIDJI        PTSUNNY   72  56  57 SW6       30.07F
HALLOCK        CLOUDY    72  63  73 S9        30.02F
ROSEAU         MOSUNNY   73  61  64 SW9       30.06F
WARROAD        MOSUNNY   72  57  60 SW5       30.08S
THIEF RVR FALL CLOUDY    72  61  68 SW6       30.08S
CROOKSTON      CLOUDY    73  63  68 W10       30.08R
FOSSTON        CLOUDY    73  57  56 S6        30.09R
DETROIT LAKES  PTSUNNY   73  55  53 S9        30.09R
MOORHEAD       CLOUDY    73  57  56 S6        30.09R
PARK RAPIDS    PTSUNNY   73  53  49 S10G16    30.07F
$$
MNZ006-009>011-018-025>026-241800-
   North Central Minnesota

CITY           SKY/WX    TMP DP  RH WIND       PRES   REMARKS
BAUDETTE       MOSUNNY   73  58  59 S12       30.08F
FLAG ISLAND    MOSUNNY   70  61  73 S7        30.06F
INTL FALLS     PTSUNNY   71  53  52 VRB7      30.08F
WASKISH        MOSUNNY   75  61  60 CALM      30.07F
BIG FORK       MOSUNNY   73  55  53 SW7       30.10F
LONGVILLE      MOSUNNY   73  57  56 S3        30.09F
GRAND RAPIDS   MOSUNNY   72  52  49 W7        30.10S
CRANE LAKE     PTSUNNY   68  52  56 CALM      30.11F
ORR            PTSUNNY   72  48  43 S5        30.08F
COOK           PTSUNNY   72  52  49 CALM      30.10F
$$
MNZ012-019>021-037-241800-
   Northeast Minnesota

CITY           SKY/WX    TMP DP  RH WIND       PRES   REMARKS
DULUTH         MOSUNNY   73  57  57 S6        30.10F
ELY            PTSUNNY   70  48  46 CALM      30.11S
HIBBING        CLOUDY    73  55  53 W3        30.10S
EVELETH        PTSUNNY   72  52  49 SW6       30.12S
DULUTH HARBOR  MOSUNNY   63  57  82 NE5       30.10F
TWO HARBORS    MOSUNNY   72  55  56 SE7       30.09F
SILVER BAY     SUNNY     70  54  56 S13       30.08F
GRAND MARAIS     N/A     56  48  74 W7        30.10F
G MARAIS ARPRT SUNNY     68  45  42 S7        30.13F
$$
MNZ029>031-032-039>041-046>048-054>057-064-241800-
   West Central Minnesota

CITY           SKY/WX    TMP DP  RH WIND       PRES   REMARKS
FERGUS FALLS   CLOUDY    75  52  43 S14       30.06R
WHEATON        PTSUNNY   72  57  60 SE12      30.02F
MORRIS         PTSUNNY   75  59  57 SE14G20   30.02F
ALEXANDRIA     PTSUNNY   75  54  47 SE15      30.08F
ELBOW LAKE     FAIR      75  57  54 SE14G20   30.05S
WADENA         PTSUNNY   73  55  53 S7        30.07F
GLENWOOD       PTSUNNY   75  55  50 SE12      30.07F
APPLETON       PTSUNNY   81  55  41 SE14G20   30.01F
BENSON         PTSUNNY   79  57  47 S13       30.04F
ORTONVILLE     PTSUNNY   75  57  53 SE14G21   30.00F
MADISON        PTSUNNY   81  63  54 S15       30.01F
WILLMAR        FAIR      79  54  41 SE9       30.07F
$$
MNZ033>034-036-042>043-049>051-058-059-241800-
   Central Minnesota

CITY           SKY/WX    TMP DP  RH WIND       PRES   REMARKS
ST CLOUD       MOSUNNY   80  53  39 S13G18    30.08F
SAUK CENTRE    FAIR      76  54  45 SE10G16   30.08F
PAYNESVILLE    PTSUNNY   74  53  47 E7        30.09F
AITKIN         MOSUNNY   77  55  47 SW8       30.09S
PINE RIVER     MOSUNNY   73  55  53 S5        30.11F
BRAINERD       MOSUNNY   73  50  44 S7        30.09F
STAPLES        MOSUNNY   73  52  46 SE9       30.08F
LONG PRAIRIE   FAIR      73  52  46 E10       30.08F
LITTLE FALLS   MOSUNNY   75  48  38 SE6       30.09F
LITCHFIELD     PTSUNNY   79  55  44 SE6       30.09F
BUFFALO        MOSUNNY   77  53  43 S8        30.10F
MAPLE LAKE     MOSUNNY   78  58  51 CALM      30.10S
$$
MNZ037-044-045-052-053-241800-
   East Central Minnesota

CITY           SKY/WX    TMP DP  RH WIND       PRES   REMARKS
PRINCETON      MOSUNNY   79  55  44 SE8       30.09S
MORA           MOSUNNY   73  52  46 S10       30.11F
CAMBRIDGE      MOSUNNY   81  57  44 S8        30.08F
RUSH CITY      MOSUNNY   75  55  50 S6        30.10F
MOOSE LAKE     MOSUNNY   75  54  46 S9        30.08F
HINCKLEY       FAIR      73  57  56 S9        30.10F
CLOQUET        MOSUNNY   73  55  53 S9        30.10F
MCGREGOR       MOSUNNY   75  54  46 SW12      30.10S
$$
MNZ071>073-080-081-089-090-097-098-241800-
   Southwest Minnesota

CITY           SKY/WX    TMP DP  RH WIND       PRES   REMARKS
MONTEVIDEO     MOSUNNY   79  61  53 S12G17    30.04F
GRANITE FALLS  MOSUNNY   78  62  57 SE13      30.06F
CANBY          CLOUDY    74  61  62 S12G17    30.04F
MARSHALL       CLOUDY    75  59  57 S14       30.05F
REDWOOD FALLS  MOSUNNY   80  58  46 S15       30.07F
OLIVIA         MOSUNNY   77  55  47 S8        30.06F
PIPESTONE      CLOUDY    66  61  82 S10       30.11R
WINDOM         MOSUNNY   75  57  53 S9        30.09F
WORTHINGTON    PTSUNNY   72  57  60 S8        30.11F
JACKSON        MOSUNNY   75  55  50 S9        30.10F
TRACY          CLOUDY    73  60  62 S9        30.09F THUNDER
SLAYTON        CLOUDY    69  59  69 CALM      30.14R THUNDER
$$
MNZ065>067-074>077-082>085-091>093-241800-
   South Central Minnesota

CITY           SKY/WX    TMP DP  RH WIND       PRES   REMARKS
MANKATO        MOSUNNY   77  55  47 S10G16    30.09F
NEW ULM        MOSUNNY   79  61  53 S8        30.08F
ST JAMES       MOSUNNY   81  59  47 S8        30.10F
FAIRMONT       MOSUNNY   77  55  47 S14       30.10F
GLENCOE        MOSUNNY   80  55  41 S9        30.08F
FARIBAULT      MOSUNNY   81  48  32 SW7       30.12F
OWATONNA       MOSUNNY   79  55  44 S8        30.12F
WASECA         MOSUNNY   77  52  41 S12       30.13F
ALBERT LEA     MOSUNNY   79  55  44 S13       30.13F
$$
MNZ078>079-086>088-094>096-241800-
   Southeast Minnesota

CITY           SKY/WX    TMP DP  RH WIND       PRES   REMARKS
ROCHESTER      MOSUNNY   76  55  48 CALM      30.15F
RED WING       MOSUNNY   79  57  47 SE8       30.10F
STANTON        SUNNY     79  56  45 S9        30.10F
DODGE CENTER   MOSUNNY   75  59  57 S7        30.13F
WINONA         MOSUNNY   77  55  47 E7        30.14F
AUSTIN         MOSUNNY   75  54  46 S7        30.14F
PRESTON        MOSUNNY   75  59  58 S3        30.16F
$$
ABBREVIATIONS USED IN REMARKS
   TC - TEMPERATURES IN CELSIUS
  WCI - WIND CHILL INDEX
   HX - HEAT INDEX
  VSB - VISIBILITY
$$


USA.gov is the U.S. government's official web portal to all federal, state and local government web resources and services.